Location: Mohawk View
(42.7837°N, 73.7885°W)
Time: 12:50:21
(UTC+00:00)

Cosmos 1271 Rocket - Pass Details

Date: 17 June 2021
Orbit: 498 x 544 km, 81.2° (Epoch: 26 July)

Event Time Altitude Azimuth Distance (km) Brightness Sun altitude
Rises 07:39:28 0° 358° (N) 2,598 7.1 -13.9°
Reaches altitude 10° 07:41:44 10° 8° (N) 1,709 6.3 -13.6°
Maximum altitude 07:45:11 34° 75° (ENE) 835 4.3 -13.2°
Drops below altitude 10° 07:48:36 10° 142° (SE) 1,704 5.2 -12.8°
Sets 07:50:51 0° 152° (SSE) 2,588 6.0 -12.6°
